Location: Heidgraben
(53.7081°N, 9.6576°E)
Time: 23:18:33
(UTC+00:00)

Cosmos 1680 Rocket - Pass Details

Date: 05 July 2020
Orbit: 760 x 781 km, 74.1° (Epoch: 03 August)

Event Time Altitude Azimuth Distance (km) Brightness Sun altitude
Exits shadow 21:35:41 12° 167° (SSE) 2,176 5.2 -10.0°
Maximum altitude 21:40:03 37° 104° (ESE) 1,213 4.2 -10.3°
Drops below altitude 10° 21:44:54 10° 39° (NE) 2,348 6.4 -10.5°
Sets 21:47:26 0° 31° (NNE) 3,280 7.3 -10.7°
